TimeAST,TemperatureF,Dew PointF,Humidity,Sea Level PressureIn,VisibilityMPH,Wind Direction,Wind SpeedMPH,Gust SpeedMPH,PrecipitationIn,Events,Conditions,WindDirDegrees,DateUTC
12:56 AM,80.1,73.0,79,29.92,10.0,SSW,3.5,-,N/A,,Scattered Clouds,200,2012-11-06 04:56:00
1:56 AM,79.0,73.0,82,29.91,10.0,Calm,Calm,-,N/A,,Partly Cloudy,0,2012-11-06 05:56:00
2:56 AM,79.0,73.0,82,29.90,10.0,Calm,Calm,-,N/A,,Scattered Clouds,0,2012-11-06 06:56:00
3:56 AM,79.0,73.0,82,29.90,10.0,Calm,Calm,-,N/A,,Partly Cloudy,0,2012-11-06 07:56:00
4:56 AM,78.1,73.0,84,29.89,10.0,Calm,Calm,-,N/A,,Partly Cloudy,0,2012-11-06 08:56:00
5:56 AM,77.0,73.0,88,29.91,10.0,Calm,Calm,-,N/A,,Scattered Clouds,0,2012-11-06 09:56:00
6:56 AM,78.1,73.0,84,29.93,10.0,Calm,Calm,-,N/A,,Scattered Clouds,0,2012-11-06 10:56:00
7:56 AM,81.0,73.9,79,29.94,10.0,Calm,Calm,-,N/A,,Scattered Clouds,0,2012-11-06 11:56:00
8:56 AM,84.0,72.0,67,29.95,10.0,Calm,Calm,-,N/A,,Scattered Clouds,0,2012-11-06 12:56:00
9:56 AM,88.0,72.0,59,29.96,10.0,Calm,Calm,-,N/A,,Scattered Clouds,0,2012-11-06 13:56:00
10:56 AM,87.1,70.0,57,29.94,10.0,ENE,5.8,-,N/A,,Scattered Clouds,60,2012-11-06 14:56:00
11:56 AM,86.0,73.9,67,29.92,10.0,ENE,11.5,-,N/A,,Scattered Clouds,60,2012-11-06 15:56:00
12:56 PM,84.9,73.9,69,29.89,10.0,NE,12.7,-,0.00,,Scattered Clouds,50,2012-11-06 16:56:00
1:56 PM,84.9,75.0,72,29.88,10.0,East,11.5,-,0.00,,Scattered Clouds,80,2012-11-06 17:56:00
2:56 PM,87.1,75.0,67,29.87,10.0,ENE,12.7,-,0.01,,Scattered Clouds,70,2012-11-06 18:56:00
3:56 PM,84.9,73.9,69,29.87,10.0,ENE,11.5,-,N/A,,Scattered Clouds,70,2012-11-06 19:56:00
4:56 PM,84.0,73.0,69,29.88,10.0,East,8.1,-,N/A,,Scattered Clouds,100,2012-11-06 20:56:00
5:56 PM,82.9,73.9,74,29.90,10.0,East,5.8,-,N/A,,Scattered Clouds,100,2012-11-06 21:56:00
6:56 PM,81.0,73.9,79,29.90,10.0,East,8.1,-,N/A,,Scattered Clouds,90,2012-11-06 22:56:00
7:56 PM,81.0,73.0,77,29.91,10.0,East,6.9,-,N/A,,Partly Cloudy,100,2012-11-06 23:56:00
8:56 PM,81.0,73.0,77,29.92,10.0,ESE,5.8,-,N/A,,Partly Cloudy,120,2012-11-07 00:56:00
9:56 PM,81.0,72.0,74,29.93,10.0,ESE,3.5,-,N/A,,Partly Cloudy,120,2012-11-07 01:56:00
10:56 PM,80.1,73.0,79,29.93,10.0,Calm,Calm,-,N/A,,Partly Cloudy,0,2012-11-07 02:56:00
11:56 PM,78.1,72.0,81,29.92,10.0,Calm,Calm,-,N/A,,Partly Cloudy,0,2012-11-07 03:56:00